Weather reports worldwide

Advertisment
Bologna, Italy (16132): temperature & dewpoint: 15.01.2018 04:00:00 - 21.01.2018 04:00:00 (CET)Bologna, Italy (16132): reduced air pressure: 15.01.2018 04:00:00 - 21.01.2018 04:00:00 (CET)Bologna, Italy (16132): precipitation: 15.01.2018 04:00:00 - 21.01.2018 04:00:00 (CET)
Date & Time tt [°C] td [°C] ppp [hPa] rr [mm]
21.01.2018 04:00:00 - - - -
21.01.2018 03:00:00 1,7 -1,1 1003,9 -
21.01.2018 02:00:00 1,1 -1,7 1003,4 -
21.01.2018 01:00:00 1,9 -0,9 1004,3 -
21.01.2018 00:00:00 1,5 -1,6 1004,8 -
20.01.2018 23:00:00 2,1 -1,4 1006,3 -
20.01.2018 22:00:00 2,4 -1,6 1006,4 -
20.01.2018 21:00:00 2,9 -1,7 1007,0 -
20.01.2018 20:00:00 4,8 -0,9 1008,1 -
20.01.2018 19:00:00 6,2 -0,2 1008,8 0,0
20.01.2018 18:00:00 7,8 0,9 1009,8 -
20.01.2018 17:00:00 8,0 0,1 1010,2 -
20.01.2018 16:00:00 9,8 0,0 1011,0 -
20.01.2018 15:00:00 9,9 1,4 1011,5 -
20.01.2018 14:00:00 9,9 1,4 1012,2 -
20.01.2018 13:00:00 9,4 1,2 1013,5 0,0
20.01.2018 12:00:00 7,8 0,2 1014,5 -
20.01.2018 11:00:00 6,7 0,9 1015,0 -
20.01.2018 10:00:00 4,1 -0,6 1015,2 -
20.01.2018 09:00:00 1,6 -1,0 1015,2 -
20.01.2018 08:00:00 0,5 -2,3 1015,0 -
20.01.2018 07:00:00 0,9 -1,9 1013,8 0,0
20.01.2018 06:00:00 2,4 -0,4 1013,7 -
20.01.2018 05:00:00 1,9 -0,7 1013,2 -
20.01.2018 04:00:00 1,7 -1,1 1012,9 -
20.01.2018 03:00:00 1,1 -1,7 1013,6 -
20.01.2018 02:00:00 1,8 -1,0 1013,1 -
20.01.2018 01:00:00 2,8 0,0 1012,5 -
20.01.2018 00:00:00 3,2 0,0 1012,8 -
19.01.2018 23:00:00 3,5 -0,6 1012,4 -
19.01.2018 22:00:00 4,3 0,0 1012,1 -
19.01.2018 21:00:00 4,3 -0,2 1011,6 -
19.01.2018 20:00:00 5,3 -0,4 1011,5 -
19.01.2018 19:00:00 6,7 0,3 1011,2 0,0
19.01.2018 18:00:00 7,8 0,4 1010,7 -
19.01.2018 17:00:00 9,5 1,3 1009,7 -
19.01.2018 16:00:00 10,3 1,6 1008,9 -
19.01.2018 15:00:00 10,2 1,7 1009,0 -
19.01.2018 14:00:00 9,6 0,9 1008,7 -
19.01.2018 13:00:00 8,5 0,4 1008,8 0,0
19.01.2018 12:00:00 7,1 -0,2 1009,3 -
19.01.2018 11:00:00 5,8 0,3 1009,3 -
19.01.2018 10:00:00 4,5 0,6 1009,0 -
19.01.2018 09:00:00 2,0 -2,0 1009,1 -
19.01.2018 08:00:00 1,8 -1,7 1008,7 -
19.01.2018 07:00:00 1,4 -3,5 1008,7 0,0
19.01.2018 06:00:00 2,6 -1,8 1008,6 -
19.01.2018 05:00:00 1,3 -3,1 1009,4 -
19.01.2018 04:00:00 1,8 -4,0 1009,8 -
19.01.2018 03:00:00 2,4 -4,0 1009,8 -
19.01.2018 02:00:00 3,3 -3,6 1010,0 -
19.01.2018 01:00:00 3,9 -3,0 1010,6 0,0
19.01.2018 00:00:00 3,8 -3,6 1011,2 -
18.01.2018 23:00:00 4,7 -2,7 1011,5 -
18.01.2018 22:00:00 4,6 -3,1 1012,1 -
18.01.2018 21:00:00 4,6 -3,3 1012,6 -
18.01.2018 20:00:00 5,6 -3,1 1012,5 -
18.01.2018 19:00:00 6,3 -3,7 1012,2 0,0
18.01.2018 18:00:00 8,4 -3,6 1011,9 -
18.01.2018 17:00:00 10,9 -2,6 1012,7 -
18.01.2018 16:00:00 11,5 -2,1 1012,9 -
18.01.2018 15:00:00 12,1 -3,8 1013,0 -
18.01.2018 14:00:00 12,3 -4,9 1013,3 -
18.01.2018 13:00:00 11,3 -5,4 1014,5 0,0
18.01.2018 12:00:00 9,7 -5,9 1015,3 -
18.01.2018 11:00:00 8,0 -6,7 1016,3 -
18.01.2018 10:00:00 8,1 -6,6 1016,8 -
18.01.2018 09:00:00 7,4 -9,6 1016,4 -
18.01.2018 08:00:00 5,8 -10,6 1016,3 -
18.01.2018 07:00:00 5,3 -10,6 1015,7 0,0
18.01.2018 06:00:00 5,2 -10,3 1015,7 -
18.01.2018 05:00:00 5,3 -10,2 1016,2 -
18.01.2018 04:00:00 5,0 -10,5 1016,3 -
18.01.2018 03:00:00 6,1 -10,3 1016,9 -
18.01.2018 02:00:00 6,4 -10,1 1016,7 -
18.01.2018 01:00:00 6,2 -8,3 1016,0 0,0
18.01.2018 00:00:00 6,8 -8,5 1015,8 -
17.01.2018 23:00:00 6,3 -8,6 1015,1 -
17.01.2018 22:00:00 5,6 -7,1 1014,4 -
17.01.2018 21:00:00 6,2 -6,9 1013,4 -
17.01.2018 20:00:00 6,6 -6,8 1012,6 -
17.01.2018 19:00:00 7,9 -5,0 1011,3 0,0
17.01.2018 18:00:00 9,2 -3,5 1010,1 -
17.01.2018 17:00:00 10,4 -4,2 1007,8 -
17.01.2018 16:00:00 11,4 -4,0 1005,5 -
17.01.2018 15:00:00 12,6 -5,1 1004,3 -
17.01.2018 14:00:00 13,0 -5,2 1002,4 -
17.01.2018 13:00:00 10,7 2,7 1002,4 0,0
17.01.2018 12:00:00 4,7 2,2 1003,5 -
17.01.2018 11:00:00 2,8 0,3 1003,6 -
17.01.2018 10:00:00 3,4 0,9 1001,3 -
17.01.2018 09:00:00 2,7 0,2 1000,5 -
17.01.2018 08:00:00 2,7 0,2 1000,6 -
17.01.2018 07:00:00 2,8 0,3 1000,5 0,0
17.01.2018 06:00:00 2,9 0,4 999,4 -
17.01.2018 05:00:00 2,8 0,3 999,6 -
17.01.2018 04:00:00 2,7 0,2 1000,3 -
17.01.2018 03:00:00 2,7 0,2 1000,9 -
17.01.2018 02:00:00 2,9 0,4 1001,5 -
17.01.2018 01:00:00 3,0 0,5 1002,3 0,0
17.01.2018 00:00:00 3,0 0,5 1003,8 -
16.01.2018 23:00:00 2,6 0,1 1004,4 -
16.01.2018 22:00:00 2,6 0,0 1005,2 -
16.01.2018 21:00:00 3,2 0,6 1005,5 -
16.01.2018 20:00:00 3,4 0,6 1005,8 -
16.01.2018 19:00:00 4,6 1,8 1006,3 0,0
16.01.2018 18:00:00 4,6 1,8 1007,1 -
16.01.2018 17:00:00 4,7 1,8 1007,6 -
16.01.2018 16:00:00 4,9 2,0 1007,8 -
16.01.2018 15:00:00 4,9 2,0 1008,4 -
16.01.2018 14:00:00 4,9 2,0 1009,3 -
16.01.2018 13:00:00 4,5 1,7 1010,1 0,0
16.01.2018 12:00:00 4,1 1,4 1011,4 -
16.01.2018 11:00:00 3,7 1,0 1012,2 -
16.01.2018 10:00:00 3,6 0,9 1012,8 -
16.01.2018 09:00:00 3,7 1,2 1012,4 -
16.01.2018 08:00:00 3,7 1,2 1012,6 -
16.01.2018 07:00:00 3,6 1,1 1013,3 0,0
16.01.2018 06:00:00 3,5 1,0 1013,6 -
16.01.2018 05:00:00 3,4 0,9 1014,2 -
16.01.2018 04:00:00 3,3 0,7 1014,5 -
16.01.2018 03:00:00 3,7 1,0 1015,4 -
16.01.2018 02:00:00 3,7 1,2 1016,0 -
16.01.2018 01:00:00 3,4 0,9 1017,6 0,0
16.01.2018 00:00:00 3,4 0,7 1019,0 -
15.01.2018 23:00:00 3,2 0,6 1018,9 -
15.01.2018 22:00:00 3,5 0,8 1019,5 -
15.01.2018 21:00:00 4,1 1,4 1019,7 -
15.01.2018 20:00:00 4,1 1,4 1020,1 -
15.01.2018 19:00:00 3,9 1,2 1020,8 -
15.01.2018 18:00:00 3,9 1,2 1021,7 -
15.01.2018 17:00:00 4,0 1,2 1022,4 -
15.01.2018 16:00:00 4,2 1,4 1022,5 -
15.01.2018 15:00:00 4,2 1,4 1022,8 -
15.01.2018 14:00:00 3,9 1,4 1023,5 -
15.01.2018 13:00:00 3,1 0,6 1024,6 -
15.01.2018 12:00:00 2,6 0,1 1025,5 -
15.01.2018 11:00:00 1,8 -0,7 1026,0 -
15.01.2018 10:00:00 0,6 -1,8 1025,6 -
15.01.2018 09:00:00 - - - -
15.01.2018 08:00:00 -0,8 -3,4 1025,0 -
15.01.2018 07:00:00 -0,7 -3,3 1024,8 0,0
15.01.2018 06:00:00 -0,7 -3,3 1024,6 -
15.01.2018 05:00:00 -0,6 -3,2 1024,8 -
15.01.2018 04:00:00 - -2,7 1024,7 -

tt = temperature
td = dewpoint
ppp = reduced air pressure
rr = precipitation

Next stations